Location: Unspecified
(0.0000°N, 0.0000°E)
Time: 01:30:27
(UTC+00:00)

Courier 1B - Pass Details

Date: 19 November 2019
Orbit: 963 x 1209 km, 28.3° (Epoch: 11 December)

Event Time Altitude Azimuth Distance (km) Brightness Sun altitude
Rises 23:25:29 0° 222° (SW) 4,110 - -69.8°
Reaches altitude 10° 23:28:50 10° 210° (SSW) 3,144 - -70.0°
Maximum altitude 23:35:24 29° 153° (SSE) 2,038 - -70.3°
Drops below altitude 10° 23:41:49 10° 96° (E) 3,067 - -70.4°
Sets 23:45:01 0° 85° (E) 3,993 - -70.4°
